Hourly Weather Murawy

Today, 20 September, Monday

Time Temperature Precipitation Wind Pressure Humidity
00:00 +4°C° 0 mm 4 mps 750 mmHg 91%
01:00 +4°C° 0 mm 4 mps 750 mmHg 91%
02:00 +4°C° 0 mm 4 mps 751 mmHg 91%
03:00 +4°C° 0 mm 4 mps 751 mmHg 91%
04:00 +4°C° 0 mm 4 mps 751 mmHg 92%
05:00 +4°C° 0.1 mm 4 mps 751 mmHg 92%
06:00 +4°C° 0.1 mm 4 mps 751 mmHg 92%
07:00 +4°C° 0.1 mm 4 mps 751 mmHg 93%
08:00 +4°C° 0.1 mm 4 mps 752 mmHg 93%
09:00 +4°C° 0.1 mm 4 mps 752 mmHg 93%
10:00 +4°C° 0.1 mm 4 mps 752 mmHg 93%
11:00 +4°C° 0 mm 4 mps 752 mmHg 93%
12:00 +4°C° 0 mm 4 mps 753 mmHg 93%
13:00 +4°C° 0 mm 4 mps 753 mmHg 93%
14:00 +5°C° 0 mm 4 mps 753 mmHg 90%
15:00 +5°C° 0 mm 4 mps 753 mmHg 88%
16:00 +7°C° 0 mm 3 mps 753 mmHg 85%
17:00 +7°C° 0 mm 3 mps 753 mmHg 85%
18:00 +6°C° 0 mm 2 mps 753 mmHg 85%
19:00 +6°C° 0 mm 2 mps 754 mmHg 85%
20:00 +6°C° 0 mm 2 mps 754 mmHg 86%
21:00 +6°C° 0 mm 2 mps 754 mmHg 87%
22:00 +5°C° 0 mm 2 mps 754 mmHg 88%
23:00 +5°C° 0 mm 2 mps 754 mmHg 89%

Tomorrow, 21 September, Tuesday

Time Temperature Precipitation Wind Pressure Humidity
00:00 +4°C° 0 mm 2 mps 754 mmHg 91%
01:00 +3°C° 0 mm 2 mps 754 mmHg 93%
02:00 +3°C° 0 mm 2 mps 754 mmHg 94%
03:00 +2°C° 0 mm 3 mps 754 mmHg 94%
04:00 +2°C° 0 mm 3 mps 755 mmHg 95%
05:00 +2°C° 0 mm 3 mps 755 mmHg 92%
06:00 +3°C° 0 mm 4 mps 755 mmHg 90%
07:00 +4°C° 0 mm 4 mps 755 mmHg 87%
08:00 +5°C° 0 mm 4 mps 756 mmHg 80%
09:00 +6°C° 0 mm 5 mps 756 mmHg 74%
10:00 +7°C° 0 mm 5 mps 756 mmHg 67%
11:00 +8°C° 0 mm 5 mps 756 mmHg 63%
12:00 +9°C° 0 mm 5 mps 756 mmHg 59%
13:00 +10°C° 0 mm 5 mps 756 mmHg 55%
14:00 +10°C° 0 mm 5 mps 756 mmHg 55%
15:00 +12°C° 0 mm 4 mps 756 mmHg 56%
16:00 +12°C° 0 mm 4 mps 755 mmHg 56%
17:00 +10°C° 0 mm 4 mps 756 mmHg 64%
18:00 +9°C° 0 mm 3 mps 756 mmHg 72%
19:00 +7°C° 0 mm 3 mps 756 mmHg 79%
20:00 +7°C° 0 mm 3 mps 756 mmHg 80%
21:00 +8°C° 0 mm 3 mps 756 mmHg 82%
22:00 +8°C° 0 mm 3 mps 756 mmHg 83%
23:00 +8°C° 0 mm 3 mps 755 mmHg 84%

Day after tomorrow, 22 September, Wednesday

Time Temperature Precipitation Wind Pressure Humidity
00:00 +7°C° 0 mm 3 mps 755 mmHg 85%
01:00 +7°C° 0 mm 3 mps 755 mmHg 87%
02:00 +7°C° 0 mm 3 mps 755 mmHg 87%
03:00 +5°C° 0 mm 3 mps 755 mmHg 88%
04:00 +6°C° 0 mm 2 mps 755 mmHg 89%
05:00 +6°C° 0 mm 2 mps 755 mmHg 85%
06:00 +5°C° 0 mm 3 mps 755 mmHg 82%
07:00 +5°C° 0 mm 3 mps 755 mmHg 78%
08:00 +8°C° 0 mm 3 mps 755 mmHg 70%
09:00 +8°C° 0 mm 4 mps 755 mmHg 63%
10:00 +11°C° 0 mm 4 mps 755 mmHg 55%
11:00 +11°C° 0 mm 4 mps 755 mmHg 54%
12:00 +12°C° 0 mm 4 mps 755 mmHg 54%
13:00 +12°C° 0 mm 5 mps 754 mmHg 53%
14:00 +11°C° 0 mm 4 mps 754 mmHg 57%
15:00 +11°C° 0 mm 4 mps 754 mmHg 60%
16:00 +10°C° 0 mm 3 mps 754 mmHg 64%
17:00 +9°C° 0 mm 2 mps 754 mmHg 70%
18:00 +8°C° 0 mm 2 mps 754 mmHg 76%
19:00 +7°C° 0 mm 1 mps 754 mmHg 81%
20:00 +7°C° 0 mm 1 mps 754 mmHg 82%
21:00 +7°C° 0 mm 1 mps 754 mmHg 82%
22:00 +6°C° 0 mm 1 mps 754 mmHg 83%
23:00 +6°C° 0 mm 1 mps 753 mmHg 84%

23 September, Thursday

Time Temperature Precipitation Wind Pressure Humidity
00:00 +6°C° 0 mm 1 mps 753 mmHg 85%
01:00 +5°C° 0 mm 2 mps 753 mmHg 87%
02:00 +5°C° 0 mm 2 mps 752 mmHg 86%
03:00 +5°C° 0 mm 2 mps 752 mmHg 86%
04:00 +5°C° 0 mm 2 mps 751 mmHg 85%
05:00 +6°C° 0 mm 2 mps 751 mmHg 83%
06:00 +7°C° 0 mm 2 mps 750 mmHg 81%
07:00 +8°C° 0 mm 3 mps 750 mmHg 78%
08:00 +9°C° 0 mm 3 mps 749 mmHg 77%
09:00 +11°C° 0 mm 4 mps 748 mmHg 76%
10:00 +13°C° 0 mm 5 mps 748 mmHg 75%
11:00 +13°C° 0 mm 5 mps 747 mmHg 72%
12:00 +14°C° 0 mm 6 mps 746 mmHg 69%
13:00 +15°C° 0 mm 6 mps 746 mmHg 66%
14:00 +15°C° 0 mm 6 mps 745 mmHg 67%
15:00 +15°C° 0 mm 7 mps 744 mmHg 68%
16:00 +15°C° 0 mm 7 mps 743 mmHg 68%
17:00 +12°C° 0.8 mm 7 mps 743 mmHg 76%
18:00 +11°C° 0.8 mm 7 mps 742 mmHg 85%
19:00 +10°C° 0.8 mm 7 mps 742 mmHg 93%
20:00 +10°C° 1.2 mm 7 mps 741 mmHg 93%
21:00 +10°C° 1.2 mm 7 mps 741 mmHg 92%
22:00 +10°C° 1.2 mm 7 mps 740 mmHg 92%
23:00 +10°C° 0.9 mm 7 mps 740 mmHg 92%

24 September, Friday

Time Temperature Precipitation Wind Pressure Humidity
00:00 +10°C° 0.9 mm 8 mps 739 mmHg 92%
01:00 +9°C° 0.9 mm 8 mps 739 mmHg 92%
02:00 +9°C° 0.5 mm 7 mps 739 mmHg 92%
03:00 +9°C° 0.5 mm 7 mps 739 mmHg 92%
04:00 +9°C° 0.5 mm 6 mps 739 mmHg 92%
05:00 +8°C° 0.1 mm 7 mps 738 mmHg 92%
06:00 +8°C° 0.1 mm 7 mps 738 mmHg 91%
07:00 +8°C° 0.1 mm 7 mps 738 mmHg 91%
08:00 +9°C° 0.4 mm 7 mps 738 mmHg 88%
09:00 +9°C° 0.4 mm 8 mps 739 mmHg 86%
10:00 +10°C° 0.4 mm 8 mps 739 mmHg 83%
11:00 +11°C° 0.1 mm 8 mps 739 mmHg 77%
12:00 +12°C° 0.1 mm 8 mps 739 mmHg 71%
13:00 +13°C° 0.1 mm 9 mps 740 mmHg 65%
14:00 +12°C° 0 mm 8 mps 740 mmHg 65%
15:00 +12°C° 0 mm 7 mps 740 mmHg 65%
16:00 +12°C° 0 mm 7 mps 741 mmHg 65%
17:00 +11°C° 0 mm 6 mps 741 mmHg 66%
18:00 +12°C° 0 mm 5 mps 741 mmHg 68%
19:00 +11°C° 0 mm 4 mps 742 mmHg 69%
20:00 +11°C° 0.4 mm 4 mps 741 mmHg 77%
21:00 +10°C° 0.4 mm 3 mps 741 mmHg 85%
22:00 +10°C° 0.4 mm 3 mps 741 mmHg 93%
23:00 +11°C° 1.5 mm 4 mps 740 mmHg 93%

25 September, Saturday

Time Temperature Precipitation Wind Pressure Humidity
00:00 +10°C° 1.5 mm 6 mps 740 mmHg 94%
01:00 +11°C° 1.5 mm 7 mps 739 mmHg 95%
02:00 +11°C° 0.5 mm 8 mps 739 mmHg 93%
03:00 +12°C° 0.5 mm 8 mps 739 mmHg 91%
04:00 +12°C° 0.5 mm 9 mps 740 mmHg 89%
05:00 +12°C° 0.1 mm 9 mps 740 mmHg 88%
06:00 +12°C° 0.1 mm 8 mps 741 mmHg 86%
07:00 +12°C° 0.1 mm 8 mps 742 mmHg 84%
08:00 +12°C° 0.1 mm 8 mps 743 mmHg 83%
09:00 +14°C° 0.1 mm 7 mps 743 mmHg 82%
10:00 +14°C° 0.1 mm 7 mps 744 mmHg 80%
11:00 +15°C° 0.1 mm 7 mps 745 mmHg 79%
12:00 +15°C° 0.1 mm 7 mps 745 mmHg 77%
13:00 +15°C° 0.1 mm 6 mps 746 mmHg 75%
14:00 +15°C° 0.1 mm 6 mps 746 mmHg 76%
15:00 +15°C° 0.1 mm 5 mps 746 mmHg 77%
16:00 +15°C° 0.1 mm 5 mps 747 mmHg 77%
17:00 +14°C° 0 mm 5 mps 747 mmHg 81%
18:00 +14°C° 0 mm 4 mps 748 mmHg 84%
19:00 +13°C° 0 mm 4 mps 748 mmHg 88%
20:00 +12°C° 0 mm 4 mps 749 mmHg 89%
21:00 +12°C° 0 mm 3 mps 749 mmHg 91%
22:00 +12°C° 0 mm 3 mps 749 mmHg 92%
23:00 +12°C° 0 mm 3 mps 750 mmHg 91%
Show more

We Need Your Consent

Meteoprog and our Service Providers may store and access personal data such as cookies, device identifiers or other similar technologies on your device and process such data to personalise content and ads, as well as provide social media features and to analyse the traffic.

  • Store and/or access information on your device

    Cookies, device identifiers or other information can be stored or accessed on your device for the purposes indicated above.

  • Personalised ads and content, ad and content measurement, audience insights, and products development

    Ads and content can be personalised based on a profile. More data can be added to better personalise ads and content. Ad and content performance can be measured. Insights about the audience who saw the ads and content can be derived. Such data can be used to develop or improve user’s experience, systems and software.

By clicking ‘I Agree’ you will allow the use of indicated cookies, device identifiers, web beacons or other similar technologies. Your settings can be changed in the browser on your device.

For certain purposes, legitimate interests may be relied on, rather than consent. You can read more about this in our Privacy and Cookie Policy.